Time,TemperatureF,DewpointF,PressureIn,WindDirection,WindDirectionDegrees,WindSpeedMPH,WindSpeedGustMPH,Humidity,HourlyPrecipIn,Conditions,Clouds,dailyrainin,SolarRadiationWatts/m^2,SoftwareType,DateUTC
2013-08-16 00:00:00,77.2,73.0,30.02,SE,132,2.0,4.0,87,0.00,,,0.00,0.00,VWS V15.00,2013-08-16 04:00:00,
2013-08-16 00:01:00,76.7,72.9,30.02,SE,126,1.0,3.0,88,0.00,,CLR,0.00,0.00,VWS V14.01,2013-08-16 04:01:00,
2013-08-16 00:06:00,76.4,72.9,30.02,SE,126,0.0,1.0,89,0.00,,CLR,0.00,0.00,VWS V14.01,2013-08-16 04:06:00,
2013-08-16 00:11:00,76.2,72.7,30.02,SE,128,1.0,1.0,89,0.00,,CLR,0.00,0.00,VWS V14.01,2013-08-16 04:11:00,
2013-08-16 00:16:00,76.3,72.8,30.02,SE,136,2.0,4.0,89,0.00,,CLR,0.00,0.00,VWS V14.01,2013-08-16 04:16:00,
2013-08-16 00:21:00,76.6,72.8,30.02,SE,136,0.0,4.0,88,0.00,,CLR,0.00,0.00,VWS V14.01,2013-08-16 04:21:00,
2013-08-16 00:26:00,76.5,72.7,30.02,SE,136,0.0,4.0,88,0.00,,CLR,0.00,0.00,VWS V14.01,2013-08-16 04:26:00,
2013-08-16 00:30:00,76.4,72.6,30.02,SE,136,1.0,4.0,88,0.00,,,0.00,0.00,VWS V15.00,2013-08-16 04:30:00,
2013-08-16 00:31:00,76.3,72.5,30.02,SE,136,1.0,2.0,88,0.00,,CLR,0.00,0.00,VWS V14.01,2013-08-16 04:31:00,
2013-08-16 00:36:00,76.3,72.5,30.02,SE,136,1.0,2.0,88,0.00,,CLR,0.00,0.00,VWS V14.01,2013-08-16 04:36:00,
2013-08-16 00:41:00,76.6,72.8,30.01,SE,134,2.0,3.0,88,0.00,,CLR,0.00,0.00,VWS V14.01,2013-08-16 04:41:00,
2013-08-16 00:46:00,76.6,72.8,30.01,SE,134,1.0,3.0,88,0.00,,CLR,0.00,0.00,VWS V14.01,2013-08-16 04:46:00,
2013-08-16 00:51:00,76.6,72.8,30.01,SE,134,2.0,4.0,88,0.00,,CLR,0.00,0.00,VWS V14.01,2013-08-16 04:51:00,
2013-08-16 00:56:00,76.6,72.8,30.01,SE,128,2.0,4.0,88,0.00,,CLR,0.00,0.00,VWS V14.01,2013-08-16 04:56:00,
2013-08-16 01:00:00,76.7,72.9,30.02,SE,126,1.0,3.0,88,0.00,,,0.00,0.00,VWS V15.00,2013-08-16 05:00:00,
2013-08-16 01:01:00,76.7,73.2,30.00,SE,128,1.0,2.0,89,0.00,,CLR,0.00,0.00,VWS V14.01,2013-08-16 05:01:00,
2013-08-16 01:07:00,76.4,72.9,30.00,SE,128,1.0,3.0,89,0.00,,CLR,0.00,0.00,VWS V14.01,2013-08-16 05:07:00,
2013-08-16 01:12:00,76.2,73.1,30.00,SE,128,0.0,3.0,90,0.00,,CLR,0.00,0.00,VWS V14.01,2013-08-16 05:12:00,
2013-08-16 01:20:00,75.8,72.7,30.00,SE,128,0.0,3.0,90,0.00,,CLR,0.00,0.00,VWS V14.01,2013-08-16 05:20:00,
2013-08-16 01:25:00,75.7,72.6,30.00,SE,128,1.0,3.0,90,0.00,,CLR,0.00,0.00,VWS V14.01,2013-08-16 05:25:00,
2013-08-16 01:30:00,76.0,73.2,30.00,South,170,1.0,3.0,91,0.00,,CLR,0.00,0.00,VWS V14.01,2013-08-16 05:30:00,
2013-08-16 01:35:00,76.1,73.0,29.99,South,170,2.0,2.0,90,0.00,,CLR,0.00,0.00,VWS V14.01,2013-08-16 05:35:00,
2013-08-16 01:40:00,76.3,73.2,29.99,South,169,4.0,4.0,90,0.00,,CLR,0.00,0.00,VWS V14.01,2013-08-16 05:40:00,
2013-08-16 01:45:00,76.2,73.1,29.99,South,169,0.0,4.0,90,0.00,,CLR,0.00,0.00,VWS V14.01,2013-08-16 05:45:00,
2013-08-16 01:50:00,76.3,73.2,29.99,South,169,0.0,4.0,90,0.00,,CLR,0.00,0.00,VWS V14.01,2013-08-16 05:50:00,
2013-08-16 01:55:00,76.2,72.7,29.99,South,169,0.0,4.0,89,0.00,,CLR,0.00,0.00,VWS V14.01,2013-08-16 05:55:00,
2013-08-16 02:00:00,76.0,72.9,29.99,South,169,0.0,4.0,90,0.00,,CLR,0.00,0.00,VWS V14.01,2013-08-16 06:00:00,
2013-08-16 02:05:00,76.3,73.2,29.99,South,169,1.0,2.0,90,0.00,,CLR,0.00,0.00,VWS V14.01,2013-08-16 06:05:00,
2013-08-16 02:10:00,76.3,73.2,29.99,SSE,157,2.0,4.0,90,0.00,,CLR,0.00,0.00,VWS V14.01,2013-08-16 06:10:00,
2013-08-16 02:15:00,76.4,73.2,29.99,SSE,167,3.0,4.0,90,0.00,,CLR,0.00,0.00,VWS V14.01,2013-08-16 06:15:00,
2013-08-16 02:20:00,76.5,73.3,29.98,SSE,165,2.0,5.0,90,0.00,,CLR,0.00,0.00,VWS V14.01,2013-08-16 06:20:00,
2013-08-16 02:25:00,76.5,73.3,29.99,SE,136,4.0,5.0,90,0.00,,CLR,0.00,0.00,VWS V14.01,2013-08-16 06:25:00,
2013-08-16 02:30:00,76.8,73.7,29.98,SE,133,3.0,5.0,90,0.00,,CLR,0.00,0.00,VWS V14.01,2013-08-16 06:30:00,
2013-08-16 02:35:00,76.7,73.6,29.98,SE,126,1.0,3.0,90,0.00,,CLR,0.00,0.00,VWS V14.01,2013-08-16 06:35:00,
2013-08-16 02:40:00,76.6,73.4,29.98,ESE,111,2.0,3.0,90,0.00,,CLR,0.00,0.00,VWS V14.01,2013-08-16 06:40:00,
2013-08-16 02:45:00,76.5,73.3,29.98,ESE,111,3.0,3.0,90,0.00,,CLR,0.00,0.00,VWS V14.01,2013-08-16 06:45:00,
2013-08-16 02:50:00,76.3,73.5,29.98,ESE,111,1.0,3.0,91,0.00,,CLR,0.00,0.00,VWS V14.01,2013-08-16 06:50:00,
2013-08-16 02:55:00,76.2,73.4,29.98,ESE,115,3.0,4.0,91,0.00,,CLR,0.00,0.00,VWS V14.01,2013-08-16 06:55:00,
2013-08-16 03:00:00,76.2,73.7,29.98,ESE,115,1.0,4.0,92,0.00,,CLR,0.00,0.00,VWS V14.01,2013-08-16 07:00:00,
2013-08-16 03:05:00,76.1,73.6,29.98,ESE,115,1.0,2.0,92,0.00,,CLR,0.00,0.00,VWS V14.01,2013-08-16 07:05:00,
2013-08-16 03:10:00,76.1,73.6,29.98,ESE,115,3.0,3.0,92,0.00,,CLR,0.00,0.00,VWS V14.01,2013-08-16 07:10:00,
2013-08-16 03:15:00,76.2,74.0,29.98,ESE,115,1.0,3.0,93,0.00,,CLR,0.00,0.00,VWS V14.01,2013-08-16 07:15:00,
2013-08-16 03:20:00,76.1,73.9,29.98,ESE,115,2.0,3.0,93,0.00,,BKN110,0.00,0.00,VWS V14.01,2013-08-16 07:20:00,
2013-08-16 03:25:00,76.1,73.9,29.98,ESE,115,2.0,3.0,93,0.00,,BKN110,0.00,0.00,VWS V14.01,2013-08-16 07:25:00,
2013-08-16 03:30:00,76.2,74.0,29.98,ESE,115,1.0,4.0,93,0.00,,BKN110,0.00,0.00,VWS V14.01,2013-08-16 07:30:00,
2013-08-16 03:35:00,76.2,74.3,29.98,ESE,115,0.0,1.0,94,0.00,,BKN110,0.00,0.00,VWS V14.01,2013-08-16 07:35:00,
2013-08-16 03:40:00,76.1,74.2,29.98,ESE,115,2.0,2.0,94,0.00,,BKN110,0.00,0.00,VWS V14.01,2013-08-16 07:40:00,
2013-08-16 03:45:00,76.2,74.3,29.98,ESE,115,3.0,3.0,94,0.00,,BKN110,0.00,0.00,VWS V14.01,2013-08-16 07:45:00,
2013-08-16 03:50:00,76.6,74.8,29.99,ESE,115,1.0,3.0,94,0.00,,BKN110,0.00,0.00,VWS V14.01,2013-08-16 07:50:00,
2013-08-16 03:55:00,76.8,74.9,29.99,ESE,115,2.0,3.0,94,0.00,,BKN110,0.00,0.00,VWS V14.01,2013-08-16 07:55:00,
2013-08-16 04:00:00,76.9,75.1,29.99,SSW,198,2.0,4.0,94,0.00,,BKN110,0.00,0.00,VWS V14.01,2013-08-16 08:00:00,
2013-08-16 04:05:00,77.0,75.1,29.99,SSW,202,4.0,4.0,94,0.00,,BKN110,0.00,0.00,VWS V14.01,2013-08-16 08:05:00,
2013-08-16 04:10:00,77.1,75.2,29.99,South,190,1.0,5.0,94,0.00,,BKN110,0.00,0.00,VWS V14.01,2013-08-16 08:10:00,
2013-08-16 04:15:00,77.1,75.2,29.99,South,184,1.0,5.0,94,0.00,,BKN110,0.00,0.00,VWS V14.01,2013-08-16 08:15:00,
2013-08-16 04:20:00,77.0,75.1,29.99,South,184,2.0,5.0,94,0.00,,BKN110,0.00,0.00,VWS V14.01,2013-08-16 08:20:00,
2013-08-16 04:25:00,77.0,75.1,29.99,SSW,207,3.0,5.0,94,0.00,,BKN110,0.00,0.00,VWS V14.01,2013-08-16 08:25:00,
2013-08-16 04:30:00,77.0,74.8,29.99,SW,224,4.0,5.0,93,0.00,,BKN110,0.00,0.00,VWS V14.01,2013-08-16 08:30:00,
2013-08-16 04:35:00,77.0,74.8,29.99,WSW,242,3.0,5.0,93,0.00,,BKN110,0.00,0.00,VWS V14.01,2013-08-16 08:35:00,
2013-08-16 04:40:00,76.8,74.6,29.99,West,267,4.0,6.0,93,0.00,,BKN075,0.00,0.00,VWS V14.01,2013-08-16 08:40:00,
2013-08-16 04:45:00,76.4,74.2,29.99,West,273,1.0,6.0,93,0.00,,BKN075,0.00,0.00,VWS V14.01,2013-08-16 08:45:00,
2013-08-16 04:50:00,76.3,74.1,30.00,West,279,3.0,6.0,93,0.00,,BKN075,0.00,0.00,VWS V14.01,2013-08-16 08:50:00,
2013-08-16 04:55:00,76.2,74.0,29.99,WNW,292,4.0,6.0,93,0.00,,BKN075,0.00,0.00,VWS V14.01,2013-08-16 08:55:00,
2013-08-16 05:00:00,76.0,73.8,29.99,West,278,0.0,6.0,93,0.00,,BKN055,0.00,0.00,VWS V14.01,2013-08-16 09:00:00,
2013-08-16 05:06:00,75.9,73.7,29.99,WNW,295,0.0,4.0,93,0.00,,BKN055,0.00,0.00,VWS V14.01,2013-08-16 09:06:00,
2013-08-16 05:10:00,76.0,73.8,30.00,SW,224,2.0,4.0,93,0.00,,BKN055,0.00,0.00,VWS V14.01,2013-08-16 09:10:00,
2013-08-16 05:16:00,76.1,73.9,30.00,SW,229,1.0,4.0,93,0.00,,BKN055,0.00,0.00,VWS V14.01,2013-08-16 09:16:00,
2013-08-16 05:21:00,76.2,74.0,30.00,SSW,209,2.0,4.0,93,0.00,,BKN120,0.00,0.00,VWS V14.01,2013-08-16 09:21:00,
2013-08-16 05:26:00,76.4,74.2,30.00,SW,227,2.0,4.0,93,0.00,,BKN120,0.00,0.00,VWS V14.01,2013-08-16 09:26:00,
2013-08-16 05:30:00,77.0,74.8,29.99,SW,217,3.0,5.0,93,0.00,,,0.00,0.00,VWS V15.00,2013-08-16 09:30:00,
2013-08-16 05:31:00,76.4,74.2,30.00,SW,235,1.0,1.0,93,0.00,,BKN120,0.00,0.00,VWS V14.01,2013-08-16 09:31:00,
2013-08-16 05:36:00,76.5,74.3,30.00,West,260,2.0,2.0,93,0.00,,BKN120,0.00,0.00,VWS V14.01,2013-08-16 09:36:00,
2013-08-16 05:41:00,76.5,74.3,30.00,West,260,0.0,3.0,93,0.00,,SCT120,0.00,0.00,VWS V14.01,2013-08-16 09:41:00,
2013-08-16 05:46:00,76.5,74.3,30.00,WSW,251,3.0,5.0,93,0.00,,SCT120,0.00,0.00,VWS V14.01,2013-08-16 09:46:00,
2013-08-16 05:51:00,76.4,74.2,30.00,WNW,282,2.0,5.0,93,0.00,,SCT120,0.00,0.00,VWS V14.01,2013-08-16 09:51:00,
2013-08-16 05:56:00,76.3,74.1,30.00,WNW,282,0.0,5.0,93,0.00,,SCT120,0.00,0.00,VWS V14.01,2013-08-16 09:56:00,
2013-08-16 06:00:00,76.2,74.0,30.00,WNW,282,0.0,5.0,93,0.00,,,0.00,0.00,VWS V15.00,2013-08-16 10:00:00,
2013-08-16 06:01:00,76.2,74.0,29.99,WNW,282,0.0,0.0,93,0.00,,CLR,0.00,0.00,VWS V14.01,2013-08-16 10:01:00,
2013-08-16 06:06:00,76.1,74.2,29.99,WNW,282,0.0,0.0,94,0.00,,CLR,0.00,0.00,VWS V14.01,2013-08-16 10:06:00,
2013-08-16 06:11:00,76.2,74.3,30.00,SSE,148,1.0,3.0,94,0.00,,CLR,0.00,0.00,VWS V14.01,2013-08-16 10:11:00,
2013-08-16 06:16:00,76.2,74.3,30.00,SSE,153,2.0,3.0,94,0.00,,CLR,0.00,0.00,VWS V14.01,2013-08-16 10:16:00,
2013-08-16 06:21:00,76.1,74.2,30.00,SSE,153,0.0,3.0,94,0.00,,CLR,0.00,0.00,VWS V14.01,2013-08-16 10:21:00,
2013-08-16 06:26:00,76.2,74.3,30.00,SSE,153,1.0,3.0,94,0.00,,CLR,0.00,0.00,VWS V14.01,2013-08-16 10:26:00,
2013-08-16 06:30:00,76.2,74.7,30.00,SSE,155,1.0,3.0,95,0.00,,,0.00,0.00,VWS V15.00,2013-08-16 10:30:00,
2013-08-16 06:31:00,76.2,74.7,30.00,SSE,154,0.0,1.0,95,0.00,,CLR,0.00,0.00,VWS V14.01,2013-08-16 10:31:00,
2013-08-16 06:36:00,76.2,74.7,30.00,SSE,154,2.0,3.0,95,0.00,,CLR,0.00,0.00,VWS V14.01,2013-08-16 10:36:00,
2013-08-16 06:41:00,76.3,74.8,30.00,SSE,154,1.0,3.0,95,0.00,,CLR,0.00,0.00,VWS V14.01,2013-08-16 10:41:00,
2013-08-16 06:46:00,76.4,74.9,30.01,SSE,154,1.0,3.0,95,0.00,,CLR,0.00,0.00,VWS V14.01,2013-08-16 10:46:00,
2013-08-16 06:51:00,76.4,74.9,30.01,SSE,154,0.0,3.0,95,0.00,,CLR,0.00,0.00,VWS V14.01,2013-08-16 10:51:00,
2013-08-16 06:56:00,76.4,74.9,30.01,SSE,154,1.0,3.0,95,0.00,,CLR,0.00,0.00,VWS V14.01,2013-08-16 10:56:00,
2013-08-16 07:00:00,76.2,74.0,30.00,WNW,282,0.0,5.0,93,0.00,,,0.00,0.00,VWS V15.00,2013-08-16 11:00:00,
2013-08-16 07:01:00,76.4,74.9,30.01,SSE,154,1.0,1.0,95,0.00,,SCT120,0.00,7.00,VWS V14.01,2013-08-16 11:01:00,
2013-08-16 07:06:00,76.5,75.0,30.01,SSE,154,3.0,3.0,95,0.00,,SCT120,0.00,11.00,VWS V14.01,2013-08-16 11:06:00,
2013-08-16 07:11:00,76.6,75.1,30.01,South,171,4.0,4.0,95,0.00,,SCT120,0.00,16.00,VWS V14.01,2013-08-16 11:11:00,
2013-08-16 07:16:00,76.6,75.1,30.01,SSE,164,2.0,5.0,95,0.00,,SCT120,0.00,21.00,VWS V14.01,2013-08-16 11:16:00,
2013-08-16 07:21:00,76.7,75.2,30.01,SSE,156,3.0,5.0,95,0.00,,SCT120,0.00,26.00,VWS V14.01,2013-08-16 11:21:00,
2013-08-16 07:26:00,76.9,75.4,30.01,SE,143,2.0,5.0,95,0.00,,SCT120,0.00,26.00,VWS V14.01,2013-08-16 11:26:00,
2013-08-16 07:30:00,76.2,74.7,30.00,SSE,155,1.0,3.0,95,0.00,,,0.00,0.00,VWS V15.00,2013-08-16 11:30:00,
2013-08-16 07:31:00,77.1,75.6,30.02,SSE,165,1.0,2.0,95,0.00,,SCT120,0.00,21.00,VWS V14.01,2013-08-16 11:31:00,
2013-08-16 07:36:00,77.1,75.6,30.02,SSE,165,0.0,4.0,95,0.00,,SCT120,0.00,25.00,VWS V14.01,2013-08-16 11:36:00,
2013-08-16 07:41:00,77.1,75.6,30.02,SSE,165,0.0,4.0,95,0.00,,SCT120,0.00,26.00,VWS V14.01,2013-08-16 11:41:00,
2013-08-16 07:47:00,77.3,75.4,30.02,SSE,164,1.0,4.0,94,0.00,,SCT120,0.00,35.00,VWS V14.01,2013-08-16 11:47:00,
2013-08-16 07:52:00,77.5,75.6,30.02,SSE,164,0.0,4.0,94,0.00,,SCT120,0.00,53.00,VWS V14.01,2013-08-16 11:52:00,
2013-08-16 07:53:00,77.5,75.6,30.02,SSE,164,1.0,4.0,94,0.00,,SCT120,0.00,56.00,VWS V14.01,2013-08-16 11:53:00,
2013-08-16 07:58:00,77.6,75.7,30.03,SSE,164,1.0,4.0,94,0.00,,BKN110,0.00,67.00,VWS V14.01,2013-08-16 11:58:00,
2013-08-16 08:00:00,77.7,75.8,30.03,SSE,164,0.0,4.0,94,0.00,,,0.00,70.00,VWS V15.00,2013-08-16 12:00:00,
2013-08-16 08:03:00,77.8,75.9,30.03,SSE,164,1.0,2.0,94,0.00,,BKN110,0.00,72.00,VWS V14.01,2013-08-16 12:03:00,
2013-08-16 08:08:00,78.1,76.2,30.03,South,180,1.0,4.0,94,0.00,,BKN110,0.00,81.00,VWS V14.01,2013-08-16 12:08:00,
2013-08-16 08:13:00,78.2,76.0,30.03,South,182,2.0,4.0,93,0.00,,BKN110,0.00,172.00,VWS V14.01,2013-08-16 12:13:00,
2013-08-16 08:18:00,78.5,76.3,30.03,SSE,161,5.0,5.0,93,0.00,,BKN110,0.00,162.00,VWS V14.01,2013-08-16 12:18:00,
2013-08-16 08:23:00,78.7,76.5,30.03,South,171,4.0,5.0,93,0.00,,BKN110,0.00,102.00,VWS V14.01,2013-08-16 12:23:00,
2013-08-16 08:28:00,78.8,76.6,30.02,SSE,158,7.0,7.0,93,0.00,,BKN110,0.00,134.00,VWS V14.01,2013-08-16 12:28:00,
2013-08-16 08:30:00,77.0,75.5,30.02,SSE,165,1.0,5.0,95,0.00,,,0.00,21.00,VWS V15.00,2013-08-16 12:30:00,
2013-08-16 08:33:00,79.1,76.9,30.02,SE,138,5.0,6.0,93,0.00,,BKN110,0.00,165.00,VWS V14.01,2013-08-16 12:33:00,
2013-08-16 08:38:00,79.2,76.7,30.03,South,182,1.0,8.0,92,0.00,,BKN110,0.00,156.00,VWS V14.01,2013-08-16 12:38:00,
2013-08-16 08:43:00,79.2,76.7,30.03,South,172,5.0,8.0,92,0.00,,BKN110,0.00,125.00,VWS V14.01,2013-08-16 12:43:00,
2013-08-16 08:48:00,79.2,76.3,30.02,South,173,1.0,8.0,91,0.00,,BKN110,0.00,105.00,VWS V14.01,2013-08-16 12:48:00,
2013-08-16 08:53:00,79.3,76.8,30.02,SSE,150,2.0,8.0,92,0.00,,BKN110,0.00,111.00,VWS V14.01,2013-08-16 12:53:00,
2013-08-16 08:58:00,79.4,76.9,30.02,SSE,149,2.0,8.0,92,0.00,,-RA,0.00,139.00,VWS V14.01,2013-08-16 12:58:00,
2013-08-16 09:00:00,77.7,75.8,30.03,SSE,164,0.0,4.0,94,0.00,,,0.00,70.00,VWS V15.00,2013-08-16 13:00:00,
2013-08-16 09:03:00,79.7,77.2,30.01,ESE,118,1.0,3.0,92,0.00,,-RA,0.00,167.00,VWS V14.01,2013-08-16 13:03:00,
2013-08-16 09:08:00,79.9,77.0,30.01,ESE,115,1.0,3.0,91,0.00,,-RA,0.00,183.00,VWS V14.01,2013-08-16 13:08:00,
2013-08-16 09:13:00,80.0,77.1,30.01,SSE,153,1.0,4.0,91,0.00,,-RA,0.00,160.00,VWS V14.01,2013-08-16 13:13:00,
2013-08-16 09:18:00,80.3,77.4,30.02,South,182,2.0,5.0,91,0.00,,-RA,0.00,229.00,VWS V14.01,2013-08-16 13:18:00,
2013-08-16 09:23:00,80.5,77.6,30.02,South,170,2.0,5.0,91,0.00,,-RA,0.00,287.00,VWS V14.01,2013-08-16 13:23:00,
2013-08-16 09:28:00,81.1,78.2,30.02,SE,141,4.0,5.0,91,0.00,,-RA,0.00,301.00,VWS V14.01,2013-08-16 13:28:00,
2013-08-16 09:30:00,81.2,78.0,30.02,SE,144,4.0,5.0,90,0.00,,,0.00,315.00,VWS V15.00,2013-08-16 13:30:00,
2013-08-16 09:33:00,81.4,78.2,30.02,SE,142,2.0,5.0,90,0.00,,-RA,0.00,320.00,VWS V14.01,2013-08-16 13:33:00,
2013-08-16 09:38:00,81.3,77.8,30.02,SE,143,4.0,5.0,89,0.00,,-RA,0.00,281.00,VWS V14.01,2013-08-16 13:38:00,
2013-08-16 09:43:00,81.4,77.8,30.02,SSW,203,2.0,6.0,89,0.00,,-RA,0.00,281.00,VWS V14.01,2013-08-16 13:43:00,
2013-08-16 09:48:00,81.7,78.2,30.02,SSW,196,3.0,6.0,89,0.00,,-RA,0.00,258.00,VWS V14.01,2013-08-16 13:48:00,
2013-08-16 09:53:00,81.6,77.7,30.02,SSE,161,2.0,7.0,88,0.00,,-RA,0.00,364.00,VWS V14.01,2013-08-16 13:53:00,
2013-08-16 09:58:00,81.9,78.0,30.03,SW,225,2.0,7.0,88,0.00,,BKN090,0.00,299.00,VWS V14.01,2013-08-16 13:58:00,
2013-08-16 10:00:00,79.5,76.7,30.02,SE,146,1.0,8.0,91,0.00,,,0.00,156.00,VWS V15.00,2013-08-16 14:00:00,
2013-08-16 10:03:00,82.4,78.1,30.03,South,180,1.0,4.0,87,0.00,,BKN090,0.00,364.00,VWS V14.01,2013-08-16 14:03:00,
2013-08-16 10:08:00,82.6,78.0,30.03,SE,145,2.0,5.0,86,0.00,,BKN090,0.00,302.00,VWS V14.01,2013-08-16 14:08:00,
2013-08-16 10:13:00,82.4,77.8,30.03,South,169,1.0,5.0,86,0.00,,BKN090,0.00,295.00,VWS V14.01,2013-08-16 14:13:00,
2013-08-16 10:18:00,82.7,78.1,30.03,SSE,161,1.0,5.0,86,0.00,,BKN090,0.00,288.00,VWS V14.01,2013-08-16 14:18:00,
2013-08-16 10:23:00,82.8,77.8,30.02,SSE,162,0.0,5.0,85,0.00,,BKN090,0.00,299.00,VWS V14.01,2013-08-16 14:23:00,
2013-08-16 10:28:00,82.8,77.5,30.03,SSW,200,1.0,5.0,84,0.00,,BKN090,0.00,287.00,VWS V14.01,2013-08-16 14:28:00,
2013-08-16 10:30:00,81.2,78.0,30.02,SE,144,4.0,5.0,90,0.00,,,0.00,315.00,VWS V15.00,2013-08-16 14:30:00,
2013-08-16 10:33:00,82.9,77.6,30.03,SSW,209,1.0,4.0,84,0.00,,BKN090,0.00,308.00,VWS V14.01,2013-08-16 14:33:00,
2013-08-16 10:38:00,83.1,77.8,30.03,SW,225,0.0,4.0,84,0.00,,BKN090,0.00,350.00,VWS V14.01,2013-08-16 14:38:00,
2013-08-16 10:43:00,83.8,78.4,30.03,WSW,257,1.0,4.0,84,0.00,,BKN090,0.00,461.00,VWS V14.01,2013-08-16 14:43:00,
2013-08-16 10:48:00,84.9,78.8,30.03,SW,223,4.0,5.0,82,0.00,,BKN090,0.00,445.00,VWS V14.01,2013-08-16 14:48:00,
2013-08-16 10:53:00,84.4,77.9,30.03,SSW,192,2.0,5.0,81,0.00,,BKN090,0.00,501.00,VWS V14.01,2013-08-16 14:53:00,
2013-08-16 10:58:00,84.6,78.5,30.03,SW,232,3.0,5.0,82,0.00,,BKN110,0.00,478.00,VWS V14.01,2013-08-16 14:58:00,
2013-08-16 11:00:00,84.5,78.0,30.03,SSE,158,0.0,5.0,81,0.00,,,0.00,462.00,VWS V15.00,2013-08-16 15:00:00,
2013-08-16 11:03:00,84.5,78.4,30.03,SSW,205,2.0,4.0,82,0.00,,BKN110,0.00,450.00,VWS V14.01,2013-08-16 15:03:00,
2013-08-16 11:08:00,84.8,79.1,30.03,SE,132,1.0,4.0,83,0.00,,BKN110,0.00,415.00,VWS V14.01,2013-08-16 15:08:00,
2013-08-16 11:13:00,84.7,77.8,30.03,SSE,151,0.0,5.0,80,0.00,,BKN110,0.00,404.00,VWS V14.01,2013-08-16 15:13:00,
2013-08-16 11:18:00,84.9,77.7,30.03,SW,234,3.0,5.0,79,0.00,,BKN110,0.00,401.00,VWS V14.01,2013-08-16 15:18:00,
2013-08-16 11:23:00,85.5,78.2,30.03,SW,217,1.0,5.0,79,0.00,,BKN110,0.00,555.00,VWS V14.01,2013-08-16 15:23:00,
2013-08-16 11:28:00,86.0,78.3,30.03,SSE,163,1.0,5.0,78,0.00,,BKN110,0.00,468.00,VWS V14.01,2013-08-16 15:28:00,
2013-08-16 11:30:00,85.9,78.2,30.03,SSE,161,2.0,5.0,78,0.00,,,0.00,464.00,VWS V15.00,2013-08-16 15:30:00,
2013-08-16 11:33:00,86.0,78.3,30.03,SW,216,0.0,3.0,78,0.00,,BKN110,0.00,432.00,VWS V14.01,2013-08-16 15:33:00,
2013-08-16 11:38:00,86.2,78.5,30.02,SSW,202,2.0,4.0,78,0.00,,BKN110,0.00,432.00,VWS V14.01,2013-08-16 15:38:00,
2013-08-16 11:43:00,85.9,76.7,30.03,SW,229,2.0,7.0,74,0.00,,BKN110,0.00,524.00,VWS V14.01,2013-08-16 15:43:00,
2013-08-16 11:48:00,86.2,76.5,30.03,WSW,246,7.0,8.0,73,0.00,,BKN110,0.00,399.00,VWS V14.01,2013-08-16 15:48:00,
2013-08-16 11:53:00,86.3,77.0,30.03,ESE,110,3.0,9.0,74,0.00,,BKN110,0.00,424.00,VWS V14.01,2013-08-16 15:53:00,
2013-08-16 11:58:00,86.5,76.8,30.02,South,191,3.0,9.0,73,0.00,,BKN120,0.00,406.00,VWS V14.01,2013-08-16 15:58:00,
2013-08-16 12:00:00,86.4,76.3,30.02,SW,222,4.0,9.0,72,0.00,,,0.00,401.00,VWS V15.00,2013-08-16 16:00:00,
2013-08-16 12:04:00,86.4,76.7,30.02,SW,216,3.0,6.0,73,0.00,,BKN120,0.00,320.00,VWS V14.01,2013-08-16 16:04:00,
2013-08-16 12:09:00,86.4,77.5,30.02,South,173,5.0,6.0,75,0.00,,BKN120,0.00,378.00,VWS V14.01,2013-08-16 16:09:00,
2013-08-16 12:14:00,86.5,77.2,30.02,SW,222,6.0,9.0,74,0.00,,BKN120,0.00,436.00,VWS V14.01,2013-08-16 16:14:00,
2013-08-16 12:19:00,86.4,77.1,30.02,SSE,157,2.0,9.0,74,0.00,,BKN120,0.00,374.00,VWS V14.01,2013-08-16 16:19:00,
2013-08-16 12:24:00,86.2,76.1,30.01,South,182,5.0,9.0,72,0.00,,BKN120,0.00,378.00,VWS V14.01,2013-08-16 16:24:00,
2013-08-16 12:29:00,86.4,76.3,30.02,SW,226,6.0,9.0,72,0.00,,BKN120,0.00,374.00,VWS V14.01,2013-08-16 16:29:00,
2013-08-16 12:30:00,85.9,78.2,30.03,SSE,161,2.0,5.0,78,0.00,,,0.00,464.00,VWS V15.00,2013-08-16 16:30:00,
2013-08-16 12:34:00,86.2,76.1,30.02,West,261,3.0,6.0,72,0.00,,BKN120,0.00,362.00,VWS V14.01,2013-08-16 16:34:00,
2013-08-16 12:39:00,86.2,76.9,30.02,SSW,201,2.0,7.0,74,0.00,,BKN120,0.00,367.00,VWS V14.01,2013-08-16 16:39:00,
2013-08-16 12:44:00,86.3,77.0,30.02,SSW,208,4.0,8.0,74,0.00,,BKN120,0.00,374.00,VWS V14.01,2013-08-16 16:44:00,
2013-08-16 12:49:00,86.4,76.7,30.01,SW,228,5.0,8.0,73,0.00,,BKN120,0.00,403.00,VWS V14.01,2013-08-16 16:49:00,
2013-08-16 12:54:00,86.5,76.4,30.01,SSW,204,5.0,8.0,72,0.00,,BKN120,0.00,411.00,VWS V14.01,2013-08-16 16:54:00,
2013-08-16 12:59:00,86.3,76.6,30.01,SSW,207,4.0,9.0,73,0.00,,BKN030,0.00,392.00,VWS V14.01,2013-08-16 16:59:00,
2013-08-16 13:00:00,86.2,76.5,30.01,SSW,212,4.0,9.0,73,0.00,,,0.00,362.00,VWS V15.00,2013-08-16 17:00:00,
2013-08-16 13:04:00,86.2,76.9,30.01,SSW,203,3.0,8.0,74,0.00,,BKN030,0.00,309.00,VWS V14.01,2013-08-16 17:04:00,
2013-08-16 13:09:00,85.9,76.7,30.01,SW,229,3.0,9.0,74,0.00,,BKN030,0.00,218.00,VWS V14.01,2013-08-16 17:09:00,
2013-08-16 13:14:00,85.6,76.8,30.01,WSW,250,3.0,9.0,75,0.00,,BKN030,0.00,174.00,VWS V14.01,2013-08-16 17:14:00,
2013-08-16 13:19:00,85.5,77.5,30.01,West,261,1.0,9.0,77,0.00,,BKN030,0.00,160.00,VWS V14.01,2013-08-16 17:19:00,
2013-08-16 13:24:00,85.5,77.1,30.01,South,180,6.0,9.0,76,0.00,,BKN030,0.00,178.00,VWS V14.01,2013-08-16 17:24:00,
2013-08-16 13:29:00,85.3,77.3,30.00,SSE,168,9.0,10.0,77,0.00,,BKN030,0.00,179.00,VWS V14.01,2013-08-16 17:29:00,
2013-08-16 13:30:00,85.3,77.3,30.00,SW,214,5.0,10.0,77,0.00,,,0.00,176.00,VWS V15.00,2013-08-16 17:30:00,
2013-08-16 13:34:00,85.4,77.0,30.00,SW,225,9.0,9.0,76,0.00,,BKN030,0.00,162.00,VWS V14.01,2013-08-16 17:34:00,
2013-08-16 13:39:00,85.3,76.9,30.00,SSW,208,5.0,10.0,76,0.00,,BKN030,0.00,169.00,VWS V14.01,2013-08-16 17:39:00,
2013-08-16 13:44:00,85.3,77.3,30.00,SSW,200,5.0,10.0,77,0.00,,BKN030,0.00,162.00,VWS V14.01,2013-08-16 17:44:00,
2013-08-16 13:49:00,85.2,77.2,30.00,SW,221,6.0,10.0,77,0.00,,BKN030,0.00,151.00,VWS V14.01,2013-08-16 17:49:00,
2013-08-16 13:54:00,85.3,77.3,30.00,SW,229,3.0,10.0,77,0.00,,BKN030,0.00,171.00,VWS V14.01,2013-08-16 17:54:00,
2013-08-16 13:59:00,85.4,77.8,30.00,SSW,209,4.0,10.0,78,0.00,,OVC024,0.00,192.00,VWS V14.01,2013-08-16 17:59:00,
2013-08-16 14:00:00,85.3,76.9,30.00,SW,236,1.0,10.0,76,0.00,,,0.00,197.00,VWS V15.00,2013-08-16 18:00:00,
2013-08-16 14:04:00,85.4,76.6,30.00,WSW,238,3.0,5.0,75,0.00,,OVC024,0.00,218.00,VWS V14.01,2013-08-16 18:04:00,
2013-08-16 14:09:00,85.6,76.0,30.00,WSW,246,4.0,8.0,73,0.00,,BKN018,0.00,248.00,VWS V14.01,2013-08-16 18:09:00,
2013-08-16 14:14:00,85.7,75.2,30.00,SW,222,8.0,10.0,71,0.00,,BKN018,0.00,292.00,VWS V14.01,2013-08-16 18:14:00,
2013-08-16 14:19:00,86.0,75.9,30.00,SW,223,5.0,10.0,72,0.00,,BKN018,0.00,424.00,VWS V14.01,2013-08-16 18:19:00,
2013-08-16 14:24:00,86.2,75.7,30.00,SW,216,8.0,10.0,71,0.00,,BKN018,0.00,424.00,VWS V14.01,2013-08-16 18:24:00,
2013-08-16 14:29:00,86.3,75.8,29.99,SSW,207,9.0,10.0,71,0.00,,BKN018,0.00,378.00,VWS V14.01,2013-08-16 18:29:00,
2013-08-16 14:30:00,86.3,75.8,29.99,SSW,211,7.0,10.0,71,0.00,,,0.00,362.00,VWS V15.00,2013-08-16 18:30:00,
2013-08-16 14:34:00,86.3,75.8,30.00,SSW,205,5.0,8.0,71,0.00,,BKN018,0.00,327.00,VWS V14.01,2013-08-16 18:34:00,
2013-08-16 14:39:00,86.1,75.6,29.99,SW,229,4.0,9.0,71,0.00,,BKN018,0.00,348.00,VWS V14.01,2013-08-16 18:39:00,
2013-08-16 14:44:00,86.2,76.1,29.99,SW,223,2.0,9.0,72,0.00,,BKN018,0.00,369.00,VWS V14.01,2013-08-16 18:44:00,
2013-08-16 14:49:00,86.6,76.9,29.99,WSW,240,3.0,9.0,73,0.00,,BKN018,0.00,424.00,VWS V14.01,2013-08-16 18:49:00,
2013-08-16 14:54:00,86.8,76.7,29.99,WSW,242,2.0,9.0,72,0.00,,BKN018,0.00,392.00,VWS V14.01,2013-08-16 18:54:00,
2013-08-16 15:00:00,86.8,77.1,29.99,South,171,1.0,9.0,73,0.00,,BKN018,0.00,401.00,VWS V14.01,2013-08-16 19:00:00,
2013-08-16 15:05:00,87.0,76.5,29.98,South,186,1.0,9.0,71,0.00,,SCT020,0.00,413.00,VWS V14.01,2013-08-16 19:05:00,
2013-08-16 15:10:00,87.3,75.9,29.98,South,175,2.0,10.0,69,0.00,,SCT020,0.00,471.00,VWS V14.01,2013-08-16 19:10:00,
2013-08-16 15:15:00,87.7,76.3,29.98,SSW,198,2.0,10.0,69,0.00,,SCT020,0.00,628.00,VWS V14.01,2013-08-16 19:15:00,
2013-08-16 15:20:00,88.3,77.7,29.98,SSW,212,3.0,11.0,71,0.00,,SCT020,0.00,740.00,VWS V14.01,2013-08-16 19:20:00,
2013-08-16 15:25:00,88.3,76.0,29.97,SSW,202,2.0,11.0,67,0.00,,SCT020,0.00,622.00,VWS V14.01,2013-08-16 19:25:00,
2013-08-16 15:30:00,88.6,76.2,29.97,SW,221,4.0,11.0,67,0.00,,SCT020,0.00,448.00,VWS V14.01,2013-08-16 19:30:00,
2013-08-16 15:35:00,88.7,76.8,29.97,SSW,195,2.0,6.0,68,0.00,,SCT020,0.00,432.00,VWS V14.01,2013-08-16 19:35:00,
2013-08-16 15:40:00,88.7,75.9,29.97,SW,225,6.0,10.0,66,0.00,,SCT020,0.00,413.00,VWS V14.01,2013-08-16 19:40:00,
2013-08-16 15:45:00,88.4,75.6,29.97,SW,214,7.0,10.0,66,0.00,,SCT020,0.00,396.00,VWS V14.01,2013-08-16 19:45:00,
2013-08-16 15:50:00,88.7,76.8,29.97,SSW,204,4.0,11.0,68,0.00,,SCT020,0.00,427.00,VWS V14.01,2013-08-16 19:50:00,
2013-08-16 15:56:00,88.6,76.2,29.97,WSW,252,3.0,11.0,67,0.00,,SCT020,0.00,448.00,VWS V14.01,2013-08-16 19:56:00,
2013-08-16 16:00:00,88.7,75.4,29.97,SSW,213,3.0,11.0,65,0.00,,,0.00,302.00,VWS V15.00,2013-08-16 20:00:00,
2013-08-16 16:01:00,88.7,75.4,29.97,SSW,213,3.0,11.0,65,0.00,,SCT020,0.00,302.00,VWS V14.01,2013-08-16 20:01:00,
2013-08-16 16:06:00,88.4,75.6,29.97,SW,219,6.0,12.0,66,0.00,,SCT020,0.00,267.00,VWS V14.01,2013-08-16 20:06:00,
2013-08-16 16:11:00,88.1,75.3,29.97,SSW,212,7.0,12.0,66,0.00,,SCT020,0.00,248.00,VWS V14.01,2013-08-16 20:11:00,
2013-08-16 16:16:00,88.1,75.8,29.97,SW,226,4.0,12.0,67,0.00,,SCT020,0.00,230.00,VWS V14.01,2013-08-16 20:16:00,
2013-08-16 16:21:00,87.6,75.3,29.97,SSW,199,1.0,12.0,67,0.00,,SCT020,0.00,186.00,VWS V14.01,2013-08-16 20:21:00,
2013-08-16 16:26:00,87.2,75.4,29.97,SSW,198,3.0,12.0,68,0.00,,SCT020,0.00,179.00,VWS V14.01,2013-08-16 20:26:00,
2013-08-16 16:30:00,88.6,76.2,29.97,SW,223,3.0,11.0,67,0.00,,,0.00,485.00,VWS V15.00,2013-08-16 20:30:00,
2013-08-16 16:31:00,87.3,75.9,29.97,SSW,198,4.0,5.0,69,0.00,,SCT020,0.00,220.00,VWS V14.01,2013-08-16 20:31:00,
2013-08-16 16:36:00,87.4,76.4,29.97,SW,224,2.0,5.0,70,0.00,,SCT020,0.00,267.00,VWS V14.01,2013-08-16 20:36:00,
2013-08-16 16:41:00,87.5,76.1,29.97,SSW,200,4.0,9.0,69,0.00,,SCT020,0.00,278.00,VWS V14.01,2013-08-16 20:41:00,
2013-08-16 16:46:00,87.5,76.1,29.97,WSW,246,2.0,10.0,69,0.00,,SCT020,0.00,294.00,VWS V14.01,2013-08-16 20:46:00,
2013-08-16 16:51:00,87.5,76.1,29.97,SW,225,8.0,10.0,69,0.00,,SCT020,0.00,239.00,VWS V14.01,2013-08-16 20:51:00,
2013-08-16 16:56:00,87.4,76.0,29.97,WSW,256,8.0,10.0,69,0.00,,SCT020,0.00,221.00,VWS V14.01,2013-08-16 20:56:00,
2013-08-16 17:00:00,87.2,75.8,29.97,SW,223,4.0,10.0,69,0.00,,,0.00,211.00,VWS V15.00,2013-08-16 21:00:00,
2013-08-16 17:01:00,87.2,75.8,29.97,SSW,211,2.0,4.0,69,0.00,,FEW020,0.00,213.00,VWS V14.01,2013-08-16 21:01:00,
2013-08-16 17:06:00,87.3,75.4,29.97,WSW,244,9.0,9.0,68,0.00,,FEW020,0.00,243.00,VWS V14.01,2013-08-16 21:06:00,
2013-08-16 17:11:00,87.4,76.0,29.97,West,262,15.0,15.0,69,0.00,,FEW020,0.00,202.00,VWS V14.01,2013-08-16 21:11:00,
2013-08-16 17:16:00,84.8,73.9,29.97,WNW,288,7.0,15.0,70,0.00,,FEW020,0.00,185.00,VWS V14.01,2013-08-16 21:16:00,
2013-08-16 17:21:00,83.8,73.4,29.97,WNW,290,4.0,15.0,71,0.00,,FEW020,0.00,176.00,VWS V14.01,2013-08-16 21:21:00,
2013-08-16 17:26:00,83.8,73.8,29.97,WNW,290,5.0,15.0,72,0.00,,FEW020,0.00,158.00,VWS V14.01,2013-08-16 21:26:00,
2013-08-16 17:30:00,83.8,73.4,29.97,WNW,294,2.0,15.0,71,0.00,,,0.00,158.00,VWS V15.00,2013-08-16 21:30:00,
2013-08-16 17:31:00,83.8,73.4,29.97,West,279,4.0,4.0,71,0.00,,FEW020,0.00,158.00,VWS V14.01,2013-08-16 21:31:00,
2013-08-16 17:36:00,84.1,73.7,29.97,WNW,286,3.0,6.0,71,0.00,,FEW020,0.00,156.00,VWS V14.01,2013-08-16 21:36:00,
2013-08-16 17:41:00,84.4,74.4,29.98,WSW,247,5.0,6.0,72,0.00,,FEW020,0.00,149.00,VWS V14.01,2013-08-16 21:41:00,
2013-08-16 17:46:00,84.8,74.8,29.98,WSW,239,1.0,6.0,72,0.00,,FEW020,0.00,146.00,VWS V14.01,2013-08-16 21:46:00,
2013-08-16 17:51:00,85.1,74.6,29.98,WSW,255,4.0,7.0,71,0.00,,FEW020,0.00,137.00,VWS V14.01,2013-08-16 21:51:00,
2013-08-16 17:56:00,85.2,74.3,29.98,West,259,1.0,7.0,70,0.00,,FEW020,0.00,123.00,VWS V14.01,2013-08-16 21:56:00,
2013-08-16 18:00:00,87.2,75.8,29.97,SW,223,4.0,10.0,69,0.00,,,0.00,211.00,VWS V15.00,2013-08-16 22:00:00,
2013-08-16 18:01:00,85.2,75.2,29.98,West,278,0.0,1.0,72,0.00,,FEW030,0.00,114.00,VWS V14.01,2013-08-16 22:01:00,
2013-08-16 18:06:00,85.1,74.6,29.98,WSW,252,4.0,5.0,71,0.00,,FEW030,0.00,109.00,VWS V14.01,2013-08-16 22:06:00,
2013-08-16 18:11:00,85.2,74.7,29.99,WSW,257,1.0,5.0,71,0.00,,FEW030,0.00,98.00,VWS V14.01,2013-08-16 22:11:00,
2013-08-16 18:16:00,85.3,74.4,29.99,West,271,2.0,9.0,70,0.00,,FEW030,0.00,95.00,VWS V14.01,2013-08-16 22:16:00,
2013-08-16 18:21:00,85.3,74.4,29.99,West,277,1.0,9.0,70,0.00,,FEW030,0.00,100.00,VWS V14.01,2013-08-16 22:21:00,
2013-08-16 18:26:00,85.2,74.7,29.99,WSW,243,2.0,9.0,71,0.00,,FEW030,0.00,107.00,VWS V14.01,2013-08-16 22:26:00,
2013-08-16 18:30:00,85.2,74.7,29.99,WSW,238,0.0,9.0,71,0.00,,,0.00,109.00,VWS V15.00,2013-08-16 22:30:00,
2013-08-16 18:31:00,85.2,74.7,29.99,WNW,299,3.0,4.0,71,0.00,,FEW030,0.00,109.00,VWS V14.01,2013-08-16 22:31:00,
2013-08-16 18:37:00,85.3,74.8,29.99,WNW,290,7.0,8.0,71,0.00,,FEW030,0.00,107.00,VWS V14.01,2013-08-16 22:37:00,
2013-08-16 18:42:00,85.5,75.4,29.99,West,271,6.0,8.0,72,0.00,,FEW030,0.00,109.00,VWS V14.01,2013-08-16 22:42:00,
2013-08-16 18:47:00,85.4,75.8,29.99,WNW,298,3.0,8.0,73,0.00,,FEW030,0.00,113.00,VWS V14.01,2013-08-16 22:47:00,
2013-08-16 18:52:00,85.2,76.0,29.99,WNW,299,7.0,8.0,74,0.00,,FEW030,0.00,104.00,VWS V14.01,2013-08-16 22:52:00,
2013-08-16 18:57:00,84.9,75.3,29.98,WNW,284,3.0,8.0,73,0.00,,FEW030,0.00,90.00,VWS V14.01,2013-08-16 22:57:00,
2013-08-16 19:00:00,84.9,75.7,29.98,WNW,295,3.0,8.0,74,0.00,,,0.00,79.00,VWS V15.00,2013-08-16 23:00:00,
2013-08-16 19:02:00,84.8,75.2,29.98,WNW,282,4.0,7.0,73,0.00,,FEW030,0.00,77.00,VWS V14.01,2013-08-16 23:02:00,
2013-08-16 19:07:00,84.7,75.5,29.98,WNW,289,1.0,7.0,74,0.00,,FEW030,0.00,62.00,VWS V14.01,2013-08-16 23:07:00,
2013-08-16 19:12:00,84.6,75.0,29.99,NW,314,2.0,7.0,73,0.00,,FEW030,0.00,47.00,VWS V14.01,2013-08-16 23:12:00,
2013-08-16 19:17:00,84.4,75.2,29.99,WNW,293,2.0,7.0,74,0.00,,FEW030,0.00,37.00,VWS V14.01,2013-08-16 23:17:00,
2013-08-16 19:22:00,84.2,75.0,29.99,WNW,299,2.0,7.0,74,0.00,,FEW030,0.00,28.00,VWS V14.01,2013-08-16 23:22:00,
2013-08-16 19:27:00,83.9,74.7,29.99,WNW,294,1.0,7.0,74,0.00,,FEW030,0.00,19.00,VWS V14.01,2013-08-16 23:27:00,
2013-08-16 19:30:00,83.8,74.6,29.99,North,360,3.0,7.0,74,0.00,,,0.00,14.00,VWS V15.00,2013-08-16 23:30:00,
2013-08-16 19:32:00,83.9,75.1,29.99,North,355,2.0,4.0,75,0.00,,FEW030,0.00,14.00,VWS V14.01,2013-08-16 23:32:00,
2013-08-16 19:37:00,83.8,75.0,29.99,North,351,2.0,4.0,75,0.00,,FEW030,0.00,9.00,VWS V14.01,2013-08-16 23:37:00,
2013-08-16 19:42:00,83.6,74.8,30.00,North,360,1.0,4.0,75,0.00,,FEW030,0.00,7.00,VWS V14.01,2013-08-16 23:42:00,
2013-08-16 19:47:00,83.5,75.1,30.00,NNW,347,2.0,4.0,76,0.00,,FEW030,0.00,5.00,VWS V14.01,2013-08-16 23:47:00,
2013-08-16 19:52:00,83.3,74.9,30.00,NNW,345,1.0,4.0,76,0.00,,FEW030,0.00,0.00,VWS V14.01,2013-08-16 23:52:00,
2013-08-16 19:57:00,83.2,75.2,30.00,NNW,345,1.0,4.0,77,0.00,,FEW030,0.00,0.00,VWS V14.01,2013-08-16 23:57:00,
2013-08-16 20:00:00,83.1,75.2,30.01,NNW,345,0.0,4.0,77,0.00,,,0.00,0.00,VWS V15.00,2013-08-17 00:00:00,
2013-08-16 20:02:00,83.1,75.2,30.01,NNW,345,0.0,0.0,77,0.00,,CLR,0.00,0.00,VWS V14.01,2013-08-17 00:02:00,
2013-08-16 20:07:00,82.7,75.2,30.01,NNW,345,0.0,0.0,78,0.00,,CLR,0.00,0.00,VWS V14.01,2013-08-17 00:07:00,
2013-08-16 20:12:00,82.5,75.3,30.01,NNW,345,0.0,2.0,79,0.00,,CLR,0.00,0.00,VWS V14.01,2013-08-17 00:12:00,
2013-08-16 20:17:00,81.8,75.0,30.01,NNW,345,0.0,2.0,80,0.00,,CLR,0.00,0.00,VWS V14.01,2013-08-17 00:17:00,
2013-08-16 20:22:00,82.2,75.4,30.02,North,360,2.0,3.0,80,0.00,,CLR,0.00,0.00,VWS V14.01,2013-08-17 00:22:00,
2013-08-16 20:27:00,82.6,75.4,30.02,North,360,0.0,3.0,79,0.00,,CLR,0.00,0.00,VWS V14.01,2013-08-17 00:27:00,
2013-08-16 20:30:00,82.7,75.2,30.02,North,360,0.0,3.0,78,0.00,,,0.00,0.00,VWS V15.00,2013-08-17 00:30:00,
2013-08-16 20:32:00,82.7,75.2,30.02,North,355,1.0,2.0,78,0.00,,CLR,0.00,0.00,VWS V14.01,2013-08-17 00:32:00,
2013-08-16 20:37:00,82.5,75.3,30.02,North,355,0.0,2.0,79,0.00,,CLR,0.00,0.00,VWS V14.01,2013-08-17 00:37:00,
2013-08-16 20:42:00,82.4,75.2,30.02,North,355,0.0,2.0,79,0.00,,CLR,0.00,0.00,VWS V14.01,2013-08-17 00:42:00,
2013-08-16 20:47:00,82.1,74.9,30.02,North,355,0.0,2.0,79,0.00,,CLR,0.00,0.00,VWS V14.01,2013-08-17 00:47:00,
2013-08-16 20:52:00,82.0,75.2,30.02,North,355,0.0,2.0,80,0.00,,CLR,0.00,0.00,VWS V14.01,2013-08-17 00:52:00,
2013-08-16 20:57:00,81.9,75.1,30.03,North,355,0.0,2.0,80,0.00,,CLR,0.00,0.00,VWS V14.01,2013-08-17 00:57:00,
2013-08-16 21:00:00,81.8,75.0,30.02,North,355,0.0,2.0,80,0.00,,,0.00,0.00,VWS V15.00,2013-08-17 01:00:00,
2013-08-16 21:02:00,81.7,75.3,30.02,North,355,0.0,0.0,81,0.00,,CLR,0.00,0.00,VWS V14.01,2013-08-17 01:02:00,
2013-08-16 21:07:00,81.8,75.0,30.03,North,355,0.0,1.0,80,0.00,,CLR,0.00,0.00,VWS V14.01,2013-08-17 01:07:00,
2013-08-16 21:13:00,82.0,75.2,30.03,North,355,0.0,1.0,80,0.00,,CLR,0.00,0.00,VWS V14.01,2013-08-17 01:13:00,
2013-08-16 21:18:00,82.0,75.2,30.03,North,355,0.0,1.0,80,0.00,,CLR,0.00,0.00,VWS V14.01,2013-08-17 01:18:00,
2013-08-16 21:23:00,82.0,75.2,30.03,North,355,0.0,1.0,80,0.00,,CLR,0.00,0.00,VWS V14.01,2013-08-17 01:23:00,
2013-08-16 21:28:00,81.8,75.4,30.03,North,355,0.0,1.0,81,0.00,,CLR,0.00,0.00,VWS V14.01,2013-08-17 01:28:00,
2013-08-16 21:30:00,81.7,75.3,30.03,North,355,0.0,1.0,81,0.00,,,0.00,0.00,VWS V15.00,2013-08-17 01:30:00,
2013-08-16 21:33:00,81.6,75.2,30.03,North,355,0.0,0.0,81,0.00,,CLR,0.00,0.00,VWS V14.01,2013-08-17 01:33:00,
2013-08-16 21:38:00,81.1,75.1,30.03,North,355,0.0,0.0,82,0.00,,CLR,0.00,0.00,VWS V14.01,2013-08-17 01:38:00,
2013-08-16 21:43:00,80.6,75.0,30.04,North,355,0.0,0.0,83,0.00,,CLR,0.00,0.00,VWS V14.01,2013-08-17 01:43:00,
2013-08-16 21:48:00,80.5,75.2,30.04,North,355,0.0,0.0,84,0.00,,CLR,0.00,0.00,VWS V14.01,2013-08-17 01:48:00,
2013-08-16 21:53:00,80.5,75.6,30.04,North,355,0.0,0.0,85,0.00,,CLR,0.00,0.00,VWS V14.01,2013-08-17 01:53:00,
2013-08-16 21:58:00,80.6,76.0,30.04,North,355,2.0,2.0,86,0.00,,CLR,0.00,0.00,VWS V14.01,2013-08-17 01:58:00,
2013-08-16 22:00:00,81.8,75.0,30.02,North,355,0.0,2.0,80,0.00,,,0.00,0.00,VWS V15.00,2013-08-17 02:00:00,
2013-08-16 22:03:00,80.7,75.8,30.05,NE,37,1.0,2.0,85,0.00,,CLR,0.00,0.00,VWS V14.01,2013-08-17 02:03:00,
2013-08-16 22:08:00,80.5,75.6,30.05,NE,49,1.0,2.0,85,0.00,,CLR,0.00,0.00,VWS V14.01,2013-08-17 02:08:00,
2013-08-16 22:13:00,80.2,75.6,30.05,NE,50,1.0,2.0,86,0.00,,CLR,0.00,0.00,VWS V14.01,2013-08-17 02:13:00,
2013-08-16 22:18:00,80.1,75.5,30.05,NE,50,0.0,2.0,86,0.00,,CLR,0.00,0.00,VWS V14.01,2013-08-17 02:18:00,
2013-08-16 22:23:00,80.3,75.4,30.05,NE,50,0.0,2.0,85,0.00,,CLR,0.00,0.00,VWS V14.01,2013-08-17 02:23:00,
2013-08-16 22:28:00,80.5,75.6,30.05,NE,50,1.0,2.0,85,0.00,,CLR,0.00,0.00,VWS V14.01,2013-08-17 02:28:00,
2013-08-16 22:30:00,81.7,75.3,30.03,North,355,0.0,1.0,81,0.00,,,0.00,0.00,VWS V15.00,2013-08-17 02:30:00,
2013-08-16 22:33:00,80.4,75.5,30.05,NE,51,1.0,2.0,85,0.00,,CLR,0.00,0.00,VWS V14.01,2013-08-17 02:33:00,
2013-08-16 22:38:00,80.5,75.6,30.05,NE,51,0.0,2.0,85,0.00,,CLR,0.00,0.00,VWS V14.01,2013-08-17 02:38:00,
2013-08-16 22:43:00,80.5,75.6,30.05,NE,51,0.0,2.0,85,0.00,,CLR,0.00,0.00,VWS V14.01,2013-08-17 02:43:00,
2013-08-16 22:48:00,80.0,75.4,30.05,NE,51,1.0,2.0,86,0.00,,CLR,0.00,0.00,VWS V14.01,2013-08-17 02:48:00,
2013-08-16 22:53:00,80.1,75.5,30.05,NE,51,1.0,2.0,86,0.00,,CLR,0.00,0.00,VWS V14.01,2013-08-17 02:53:00,
2013-08-16 22:58:00,80.2,75.3,30.05,NE,51,0.0,2.0,85,0.00,,CLR,0.00,0.00,VWS V14.01,2013-08-17 02:58:00,
2013-08-16 23:00:00,80.2,75.3,30.05,ENE,73,3.0,3.0,85,0.00,,,0.00,0.00,VWS V15.00,2013-08-17 03:00:00,
2013-08-16 23:03:00,80.1,75.5,30.04,ENE,73,1.0,3.0,86,0.00,,CLR,0.00,0.00,VWS V14.01,2013-08-17 03:03:00,
2013-08-16 23:08:00,80.0,75.8,30.04,ESE,102,2.0,7.0,87,0.00,,CLR,0.00,0.00,VWS V14.01,2013-08-17 03:08:00,
2013-08-16 23:13:00,79.8,75.6,30.04,East,85,0.0,7.0,87,0.00,,CLR,0.00,0.00,VWS V14.01,2013-08-17 03:13:00,
2013-08-16 23:18:00,79.8,75.6,30.04,East,85,2.0,7.0,87,0.00,,CLR,0.00,0.00,VWS V14.01,2013-08-17 03:18:00,
2013-08-16 23:23:00,79.8,75.6,30.05,East,81,2.0,7.0,87,0.00,,CLR,0.00,0.00,VWS V14.01,2013-08-17 03:23:00,
2013-08-16 23:28:00,79.6,75.7,30.05,SE,128,2.0,7.0,88,0.00,,CLR,0.00,0.00,VWS V14.01,2013-08-17 03:28:00,
2013-08-16 23:30:00,79.6,75.7,30.05,ESE,104,2.0,7.0,88,0.00,,,0.00,0.00,VWS V15.00,2013-08-17 03:30:00,
2013-08-16 23:33:00,79.6,76.1,30.05,ESE,112,3.0,7.0,89,0.00,,CLR,0.00,0.00,VWS V14.01,2013-08-17 03:33:00,
2013-08-16 23:38:00,79.6,76.1,30.05,ESE,121,3.0,7.0,89,0.00,,CLR,0.00,0.00,VWS V14.01,2013-08-17 03:38:00,
2013-08-16 23:43:00,79.6,76.1,30.05,ESE,121,2.0,7.0,89,0.00,,CLR,0.00,0.00,VWS V14.01,2013-08-17 03:43:00,
2013-08-16 23:48:00,79.6,75.7,30.05,ESE,123,4.0,7.0,88,0.00,,CLR,0.00,0.00,VWS V14.01,2013-08-17 03:48:00,
2013-08-16 23:53:00,79.5,75.6,30.05,ESE,122,2.0,7.0,88,0.00,,CLR,0.00,0.00,VWS V14.01,2013-08-17 03:53:00,
2013-08-16 23:58:00,79.5,75.6,30.05,ESE,116,2.0,7.0,88,0.00,,FEW070,0.00,0.00,VWS V14.01,2013-08-17 03:58:00,